カタログに戻る

COSMOS 839 DEB

運用中UNKNOWN
NORAD 10416·DEBRIS·🇷🇺 Russia

打ち上げ Jul 8, 1976 から Plesetsk Cosmodrome

Loading…

次のパス (今後24時間)

TLE

最新Source: Space-Track

元期: Sep 14, 2026, 10:45 UTC

1 10416U 76067K   26257.44842205 -.00000039  00000-0  66129-4 0  9990
2 10416  65.7182  45.2968 0644154  70.4880 327.2429 12.20407277236763

AllMySatでCOSMOS 839 DEBをリアルタイム追跡

Download on the App Store